Content
SEND FEEDBACK

Daily
Averages
Monthly
Summary
United States of America

VENICE, FLORIDA


Home > North America > United States > Florida
Elevation: 19 feet     Latitude: 27 04N     Longitude: 082 26W

WEATHER
 
SELECT A DAY
Number of Records: 89,816;   Date Range: 2/3/11 - 10/21/14
 
SHARE

PRINT THIS DATA

[ ← Previous Day ]
WEATHER ALMANAC - JANUARY 3, 2013
[ Next Day → ]
[ °C ]   °F
Weather ElementAverageHighLow
Temperature67.4 °F77 °F (11:35 am)59 °F (1:35 am)
Dewpoint64.2 °F68 °F (1:35 pm)59 °F (1:35 am)
Humidity90.5 %100 % (12:35 am)61 % (11:35 am)
Barometer30.09 in30.14 in (9:15 pm)30.04 in (2:15 pm)
Wind Speed7.1 mph13.8 mph (10:15 pm)
Wind Gust19.6 mph (3:15 pm)
Weather ElementAverage
Visibility7.4 mi
Wind DirectionESE (98.9 °)

Weather ElementTotal
Precipitation0.18 in
Cooling Degree Days3 (Base 65)
Growing Degree Days18 (Base 50)
Averaged from 70 records on January 3, 2013
WEATHER CONDITIONS BREAKOUT
WIND DIRECTION BREAKOUT
WEATHER BY HOUR - JANUARY 3, 2013
[ °C ]   °F
Local TimeTemperatureDewpointHumidityBarometerVisibilityWind DirectionWind SpeedGust SpeedPrecipitationEventsConditions
12:35 AM62.6 °F62.6 °F100 %30.08 in0.2 miCalmFogFog
12:55 AM60.8 °F60.8 °F100 %30.08 in0.8 miCalmMist
1:15 AM60.8 °F60.8 °F100 %30.08 in0.5 miCalmFogFog
1:35 AM59.0 °F59.0 °F100 %30.07 in0.8 miENE (60°)3.5 mphMist
1:55 AM59.0 °F59.0 °F100 %30.07 in4.0 miEast (90°)4.6 mphClear
2:15 AM59.0 °F59.0 °F100 %30.07 in7.0 miEast (90°)4.6 mphClear
2:35 AM59.0 °F59.0 °F100 %30.06 in7.0 miCalmClear
2:55 AM60.8 °F60.8 °F100 %30.06 in8.0 miESE (120°)3.5 mphClear
3:15 AM60.8 °F60.8 °F100 %30.06 in6.0 miEast (80°)4.6 mphClear
3:35 AM60.8 °F60.8 °F100 %30.06 in7.0 miENE (70°)3.5 mphClear
3:55 AM59.0 °F59.0 °F100 %30.06 in6.0 miEast (80°)4.6 mphClear
4:15 AM59.0 °F59.0 °F100 %30.06 in7.0 miEast (80°)3.5 mphClear
4:35 AM59.0 °F59.0 °F100 %30.05 in7.0 miEast (80°)4.6 mphClear
4:55 AM59.0 °F59.0 °F100 %30.05 in7.0 miNE (50°)6.9 mphClear
5:15 AM59.0 °F59.0 °F100 %30.05 in8.0 miENE (60°)5.8 mphClear
5:35 AM59.0 °F59.0 °F100 %30.06 in8.0 miENE (70°)4.6 mphClear
5:55 AM59.0 °F59.0 °F100 %30.06 in7.0 miENE (70°)4.6 mphClear
6:15 AM59.0 °F59.0 °F100 %30.07 in7.0 miENE (70°)3.5 mphClear
6:35 AM59.0 °F59.0 °F100 %30.08 in7.0 miENE (70°)4.6 mphClear
6:55 AM59.0 °F59.0 °F100 %30.08 in7.0 miEast (80°)3.5 mphClear
7:15 AM59.0 °F59.0 °F100 %30.09 in7.0 miENE (60°)4.6 mphClear
7:35 AM59.0 °F59.0 °F100 %30.09 in5.0 miENE (60°)5.8 mphClear
7:55 AM59.0 °F59.0 °F100 %30.10 in7.0 miENE (70°)3.5 mphClear
8:15 AM60.8 °F60.8 °F100 %30.10 in7.0 miENE (70°)4.6 mphClear
8:35 AM62.6 °F62.6 °F100 %30.11 in5.0 miEast (90°)4.6 mphClear
8:55 AM64.4 °F64.4 °F100 %30.11 in5.0 miEast (90°)5.8 mphClear
9:15 AM64.4 °F64.4 °F100 %30.11 in3.0 miEast (80°)6.9 mphMist
9:35 AM66.2 °F66.2 °F100 %30.11 in3.0 miEast (90°)8.1 mphClear
9:55 AM66.2 °F66.2 °F100 %30.11 in5.0 miESE (110°)8.1 mphClear
10:15 AM68.0 °F66.2 °F94 %30.12 in7.0 miESE (110°)8.1 mphClear
10:35 AM71.6 °F66.2 °F83 %30.11 in10.0 miSE (130°)9.2 mphClear
10:55 AM73.4 °F64.4 °F73 %30.11 in10.0 miESE (120°)8.1 mphClear
11:15 AM75.2 °F64.4 °F69 %30.10 in10.0 miESE (110°)8.1 mphClear
11:35 AM77.0 °F62.6 °F61 %30.09 in10.0 miSE (140°)6.9 mphClear
11:55 AM77.0 °F62.6 °F61 %30.08 in9.0 miSSE (160°)6.9 mphClear
12:15 PM77.0 °F64.4 °F65 %30.08 in10.0 miSouth (180°)6.9 mphClear
12:35 PM77.0 °F64.4 °F65 %30.07 in10.0 miSouth (190°)10.4 mphClear
12:55 PM77.0 °F64.4 °F65 %30.06 in10.0 miSouth (190°)12.7 mph16.1 mphClear
1:15 PM77.0 °F66.2 °F69 %30.06 in10.0 miSouth (180°)12.7 mphPartly Cloudy
1:35 PM77.0 °F68.0 °F74 %30.05 in9.0 miSouth (170°)12.7 mph17.3 mphScattered Clouds
1:55 PM77.0 °F68.0 °F74 %30.05 in10.0 miSouth (170°)12.7 mph18.4 mphMostly Cloudy
2:15 PM77.0 °F68.0 °F74 %30.04 in10.0 miSSE (160°)12.7 mphPartly Cloudy
2:35 PM75.2 °F68.0 °F78 %30.04 in10.0 miSouth (170°)12.7 mphPartly Cloudy
2:55 PM77.0 °F68.0 °F74 %30.04 in10.0 miSouth (170°)12.7 mphPartly Cloudy
3:15 PM75.2 °F68.0 °F78 %30.05 in10.0 miSouth (170°)12.7 mph19.6 mphMostly Cloudy
3:35 PM75.2 °F68.0 °F78 %30.04 in10.0 miSouth (170°)12.7 mphThunderstormThunderstorm
3:55 PM73.4 °F68.0 °F83 %30.05 in10.0 miSouth (170°)12.7 mphMostly Cloudy
4:15 PM73.4 °F68.0 °F83 %30.06 in10.0 miSouth (170°)11.5 mphOvercast
4:35 PM73.4 °F66.2 °F78 %30.05 in10.0 miSSE (160°)12.7 mphOvercast
4:55 PM71.6 °F68.0 °F88 %30.07 in10.0 miSouth (180°)11.5 mphOvercast
5:15 PM71.6 °F68.0 °F88 %30.06 in10.0 miSouth (170°)9.2 mph16.1 mphThunderstormThunderstorm
5:35 PM71.6 °F68.0 °F88 %30.07 in9.0 miSSE (160°)10.4 mphOvercast
6:15 PM71.6 °F68.0 °F88 %30.09 in10.0 miSouth (170°)8.1 mphMostly Cloudy
6:35 PM68.0 °F66.2 °F94 %30.10 in10.0 miSSW (200°)4.6 mphOvercast
6:55 PM69.8 °F68.0 °F94 %30.10 in10.0 miWest (270°)4.6 mphOvercast
7:15 PM69.8 °F68.0 °F94 %30.11 in10.0 miCalmOvercast
7:35 PM69.8 °F68.0 °F94 %30.11 in10.0 miCalmOvercast
7:55 PM71.6 °F68.0 °F88 %30.12 in10.0 miCalmOvercast
8:15 PM71.6 °F68.0 °F88 %30.12 in10.0 miEast (90°)3.5 mphOvercast
8:35 PM71.6 °F68.0 °F88 %30.13 in10.0 miNNE (20°)8.1 mphMostly Cloudy
8:55 PM69.8 °F66.2 °F88 %30.13 in9.0 miNNE (30°)6.9 mphRainLight Rain
9:15 PM69.8 °F66.2 °F88 %30.14 in8.0 miNNE (30°)8.1 mphMostly Cloudy
9:35 PM68.0 °F66.2 °F94 %30.14 in7.0 miNE (50°)9.2 mphMostly Cloudy
9:55 PM68.0 °F66.2 °F94 %30.14 in6.0 miNE (50°)10.4 mphMostly Cloudy
10:15 PM68.0 °F68.0 °F100 %30.14 in1.5 miNE (50°)13.8 mph0.05 inRainHeavy Rain
10:35 PM68.0 °F68.0 °F100 %30.14 in3.0 miENE (70°)11.5 mph0.06 inRainLight Rain
10:55 PM68.0 °F68.0 °F100 %30.14 in5.0 miENE (70°)10.4 mph0.07 inOvercast
11:15 PM68.0 °F68.0 °F100 %30.14 in5.0 miENE (60°)9.2 mphOvercast
11:35 PM68.0 °F68.0 °F100 %30.14 in5.0 miENE (60°)9.2 mphMostly Cloudy
11:55 PM68.0 °F68.0 °F100 %30.14 in4.0 miENE (60°)9.2 mphOvercast
Hourly data recorded from KVNC, located miles away from Venice, Florida







STORIES FROM OUR PARTNERS